Location: Poughquag
(41.6090°N, 73.6820°W)
Time: 12:35:25
(UTC-04:00)

Tiros 1 - Pass Details

Date: 03 June 2020
Orbit: 630 x 664 km, 48.4° (Epoch: 06 July)

Event Time Altitude Azimuth Distance (km) Brightness Sun altitude
Rises 18:20:59 0° 294° (WNW) 2,945 12.0 20.5°
Reaches altitude 10° 18:23:26 10° 287° (WNW) 2,027 12.0 20.0°
Maximum altitude 18:27:45 38° 219° (SW) 961 8.6 19.3°
Drops below altitude 10° 18:32:01 10° 151° (SSE) 2,002 9.3 18.5°
Sets 18:34:26 0° 144° (SE) 2,904 10.1 18.0°
